CW9414 Weather Reports


Display with metric or nautical units.
time (UTC)temp
F
wind
direction
speed
MPH
gust
MPH
rain 1hr
in
rain 24hr
in
rain mn
in
humidity
%
barometer
mb
20260904045449 81 41 0.0 2.0 0.00 0.00 0.50 89 1009.1
20260904044449 81 40 0.0 0.0 0.00 0.00 0.50 89 1009.0
20260904043449 81 40 0.0 0.0 0.00 0.00 0.50 89 1009.0
20260904042449 81 40 0.0 0.0 0.00 0.00 0.50 89 1008.9
20260904041449 81 40 0.0 0.0 0.00 0.00 0.50 89 1009.0
20260904040449 81 40 0.0 2.0 0.00 0.00 0.50 90 1009.0
20260904035449 81 18 0.0 0.0 0.00 0.00 0.50 90 1009.1
20260904034450 81 18 0.0 1.0 0.00 0.00 0.50 90 1009.1
20260904033450 81 18 0.0 1.0 0.00 0.00 0.50 90 1009.1
20260904032453 81 18 0.0 0.0 0.00 0.00 0.50 90 1009.1
20260904031453 81 18 0.0 1.0 0.00 0.00 0.50 90 1009.1
20260904030450 81 18 0.0 1.0 0.00 0.00 0.50 90 1009.1
20260904025450 81 18 0.0 1.0 0.00 0.00 0.50 89 1009.0
20260904024449 80 17 0.0 0.0 0.00 0.00 0.50 89 1008.6
20260904023452 80 18 0.0 0.0 0.00 0.00 0.50 89 1008.6
20260904022452 80 18 0.0 0.0 0.00 0.00 0.50 88 1008.6
20260904021452 80 17 0.0 0.0 0.00 0.00 0.50 88 1008.5
20260904020452 80 18 0.0 0.0 0.00 0.00 0.50 88 1008.5
20260904015449 80 18 0.0 0.0 0.00 0.00 0.50 87 1008.2
20260904014449 80 18 0.0 0.0 0.00 0.00 0.50 87 1008.1
20260904013449 80 18 0.0 0.0 0.00 0.00 0.50 87 1008.1
20260904012449 80 18 0.0 0.0 0.00 0.00 0.50 87 1008.1
20260904011450 81 18 0.0 0.0 0.00 0.00 0.50 87 1008.1
20260904010449 81 18 0.0 0.0 0.00 0.00 0.50 87 1008.1
20260904005449 81 18 0.0 0.0 0.00 0.00 0.50 87 1008.0
20260904004449 81 18 0.0 0.0 0.00 0.00 0.50 88 1008.1
20260904003449 81 18 0.0 0.0 0.00 0.00 0.50 88 1008.1
20260904002449 81 18 0.0 0.0 0.00 0.00 0.50 88 1008.1
20260904001449 81 18 0.0 0.0 0.00 0.00 0.50 88 1008.1
20260904000449 81 18 0.0 0.0 0.00 0.00 0.50 88 1008.1
20260903235452 81 18 0.0 0.0 0.00 0.00 0.50 88 1008.1
20260903234452 81 18 0.0 0.0 0.00 0.00 0.50 88 1008.1
20260903233449 81 18 0.0 0.0 0.00 0.00 0.50 88 1008.1
20260903232452 80 18 0.0 0.0 0.00 0.00 0.50 88 1008.5
20260903231449 80 18 0.0 0.0 0.00 0.00 0.50 88 1008.5
20260903230449 80 18 0.0 0.0 0.00 0.00 0.50 88 1008.5
20260903225452 80 18 0.0 0.0 0.00 0.00 0.50 88 1008.5
20260903224449 80 18 0.0 0.0 0.00 0.00 0.50 88 1008.4
20260903223449 80 18 0.0 0.0 0.00 0.00 0.50 88 1008.4
20260903222449 80 18 0.0 0.0 0.00 0.00 0.50 88 1008.4
20260903221449 80 18 0.0 0.0 0.00 0.00 0.50 88 1008.6
20260903220449 80 18 0.0 1.0 0.00 0.00 0.50 88 1008.6
20260903215452 80 18 0.0 1.0 0.00 0.00 0.50 88 1009.0
20260903214449 80 18 0.0 1.0 0.00 0.00 0.50 87 1009.2
20260903213449 79 17 0.0 0.0 0.00 0.00 0.49 86 1009.2
20260903212449 79 17 0.0 0.0 0.00 0.00 0.49 86 1009.5
20260903211449 79 17 0.0 0.0 0.00 0.00 0.48 86 1009.2
20260903210452 79 17 0.0 0.0 0.00 0.00 0.47 85 1009.2
20260903205449 78 17 0.0 0.0 0.00 0.00 0.45 83 1009.4
20260903204449 79 17 0.0 0.0 0.00 0.00 0.43 82 1009.6
20260903203452 79 17 0.0 0.0 0.00 0.00 0.43 82 1009.6
20260903202452 79 17 0.0 0.0 0.00 0.00 0.43 82 1009.7
20260903201449 80 17 0.0 1.0 0.00 0.00 0.42 82 1009.6
20260903200449 80 17 0.0 2.0 0.00 0.00 0.42 82 1009.6
20260903195449 81 18 0.0 0.0 0.00 0.00 0.42 80 1009.6
20260903194452 81 18 0.0 1.0 0.00 0.00 0.41 79 1009.9
20260903193449 81 18 0.0 0.0 0.00 0.00 0.39 77 1009.9
20260903192452 81 18 0.0 0.0 0.00 0.00 0.37 76 1010.6
20260903191449 82 19 0.0 2.0 0.00 0.00 0.37 74 1009.9
20260903190449 84 19 0.0 1.0 0.00 0.00 0.35 71 1009.9
20260903185452 87 170 0.0 2.0 0.00 0.00 0.17 66 1009.8
20260903184449 88 171 0.0 5.0 0.00 0.00 0.00 62 1009.7
20260903183449 90 139 0.0 1.0 0.00 0.00 0.00 62 1009.7
20260903182449 91 139 0.0 1.0 0.00 0.00 0.00 60 1009.7
20260903181449 91 139 0.0 4.0 0.00 0.00 0.00 59 1009.7
20260903180452 92 142 0.0 0.0 0.00 0.00 0.00 59 1009.7
20260903175449 92 142 1.0 2.0 0.00 0.00 0.00 60 1009.9
20260903174448 92 142 0.0 3.0 0.00 0.00 0.00 60 1009.7
20260903173452 93 142 3.0 5.0 0.00 0.00 0.00 60 1009.7
20260903172448 93 140 1.0 9.0 0.00 0.00 0.00 60 1009.8
20260903171448 92 185 0.0 4.0 0.00 0.00 0.00 61 1010.2
20260903170449 92 187 2.0 5.0 0.00 0.00 0.00 62 1010.2
20260903165448 91 190 2.0 5.0 0.00 0.00 0.00 64 1010.3
20260903164448 90 235 2.0 3.0 0.00 0.00 0.00 68 1010.3
20260903163448 89 235 1.0 3.0 0.00 0.00 0.00 69 1010.3
20260903162448 88 235 1.0 4.0 0.00 0.00 0.00 69 1010.4
20260903161448 87 225 2.0 4.0 0.00 0.00 0.00 72 1010.3
20260903160449 87 227 1.0 3.0 0.00 0.00 0.00 74 1010.3
20260903155448 87 229 1.0 3.0 0.00 0.00 0.00 75 1010.2
20260903154449 87 230 2.0 5.0 0.00 0.00 0.00 75 1010.3
20260903153448 86 172 0.0 5.0 0.00 0.00 0.00 76 1010.3
20260903152449 86 184 1.0 4.0 0.00 0.00 0.00 77 1010.4
20260903151448 86 184 0.0 5.0 0.00 0.00 0.00 78 1010.6
20260903150449 85 156 0.0 4.0 0.00 0.00 0.00 79 1010.6
20260903145449 85 156 0.0 1.0 0.00 0.00 0.00 80 1010.7
20260903144448 84 156 0.0 2.0 0.00 0.00 0.00 81 1010.6
20260903143449 84 156 0.0 3.0 0.00 0.00 0.00 82 1010.6
20260903142451 84 156 0.0 2.0 0.00 0.00 0.00 82 1010.5
20260903141448 83 156 1.0 4.0 0.00 0.00 0.00 83 1010.3
20260903140449 83 164 0.0 3.0 0.00 0.00 0.00 84 1010.3
20260903135449 82 164 0.0 2.0 0.00 0.00 0.00 84 1010.3
20260903134449 81 173 0.0 0.0 0.00 0.00 0.00 84 1010.3
20260903133448 81 173 0.0 0.0 0.00 0.00 0.00 84 1010.3
20260903132452 81 173 0.0 0.0 0.00 0.00 0.00 84 1010.2
20260903131451 81 173 0.0 0.0 0.00 0.00 0.00 84 1010.2
20260903130449 81 173 0.0 0.0 0.00 0.00 0.00 84 1010.2
20260903125448 81 173 0.0 0.0 0.00 0.00 0.00 84 1009.8
20260903124448 81 173 0.0 0.0 0.00 0.00 0.00 84 1009.6
20260903123448 81 173 0.0 0.0 0.00 0.00 0.00 83 1009.6
20260903122449 81 173 0.0 1.0 0.00 0.00 0.00 82 1009.5
20260903121448 81 173 0.0 2.0 0.00 0.00 0.00 82 1009.4
20260903120451 81 173 0.0 4.0 0.00 0.00 0.00 82 1009.4
20260903115448 81 173 0.0 2.0 0.00 0.00 0.00 81 1009.6
20260903114451 81 173 0.0 2.0 0.00 0.00 0.00 81 1009.6
20260903113448 81 173 0.0 3.0 0.00 0.00 0.00 80 1009.6
20260903112448 82 175 0.0 4.0 0.00 0.00 0.00 80 1009.5
20260903111448 82 144 2.0 4.0 0.00 0.00 0.00 80 1009.5
20260903110448 82 168 0.0 5.0 0.00 0.00 0.00 81 1009.5
20260903105448 83 154 0.0 3.0 0.00 0.00 0.00 81 1009.3
20260903104448 83 154 0.0 5.0 0.00 0.00 0.00 81 1009.2
20260903103448 83 154 0.0 2.0 0.00 0.00 0.00 81 1009.2
20260903102448 83 154 0.0 2.0 0.00 0.00 0.00 81 1009.1
20260903101448 83 154 0.0 4.0 0.00 0.00 0.00 81 1009.1
20260903100448 83 156 0.0 2.0 0.00 0.00 0.00 81 1009.1
20260903095448 83 156 0.0 3.0 0.00 0.00 0.00 81 1009.1
20260903094448 83 156 0.0 3.0 0.00 0.00 0.00 81 1009.2
20260903093448 83 157 0.0 4.0 0.00 0.00 0.00 81 1009.2
20260903092448 83 154 0.0 3.0 0.00 0.00 0.00 81 1009.2
20260903091448 83 154 0.0 2.0 0.00 0.00 0.00 81 1009.1
20260903090448 83 154 0.0 3.0 0.00 0.00 0.00 80 1009.1
20260903085448 83 154 1.0 3.0 0.00 0.00 0.00 80 1009.2
20260903084448 83 154 0.0 1.0 0.00 0.00 0.00 80 1009.1
20260903083448 83 154 0.0 4.0 0.00 0.00 0.00 80 1009.1
20260903082448 83 154 0.0 4.0 0.00 0.00 0.00 80 1009.1
20260903081448 83 154 0.0 4.0 0.00 0.00 0.00 80 1008.9
20260903080449 83 153 0.0 3.0 0.00 0.00 0.00 80 1008.9
20260903075448 83 152 0.0 5.0 0.00 0.00 0.00 79 1009.1
20260903074451 83 150 2.0 3.0 0.00 0.00 0.00 79 1009.1
20260903073451 83 149 0.0 5.0 0.00 0.00 0.00 79 1009.1
20260903072448 83 149 0.0 4.0 0.00 0.00 0.00 79 1009.1
20260903071448 83 149 0.0 4.0 0.00 0.00 0.00 79 1009.2
20260903070448 84 149 0.0 5.0 0.00 0.00 0.00 79 1009.2
20260903065448 84 148 1.0 5.0 0.00 0.00 0.00 79 1009.6
20260903064447 84 146 1.0 4.0 0.00 0.00 0.00 79 1009.7
20260903063448 84 146 0.0 4.0 0.00 0.00 0.00 79 1009.7
20260903062448 84 146 0.0 2.0 0.00 0.00 0.00 78 1009.7
20260903061448 84 146 0.0 1.0 0.00 0.00 0.00 79 1009.8
20260903060448 84 146 0.0 2.0 0.00 0.00 0.00 78 1009.8
20260903055451 84 146 0.0 2.0 0.00 0.00 0.00 78 1010.1
20260903054448 84 146 0.0 4.0 0.00 0.00 0.00 77 1010.2
20260903053448 85 146 0.0 2.0 0.00 0.00 0.00 77 1010.2
20260903052448 85 146 0.0 1.0 0.00 0.00 0.00 77 1010.7
20260903051451 85 146 0.0 0.0 0.00 0.00 0.00 77 1010.7
20260903050448 85 146 0.0 0.0 0.00 0.00 0.00 76 1010.7